Regional Weather Roundup
Issued by NWS Pendleton, OR

Home | Current Version | Previous Version | Text Only | Print | Product List | Glossary On
Versions: 1 2 3 4 5 6 7 8 9 10 11 12 13 14 15 16 17 18 19 20 21 22 23 24 25 26 27 28 29 30 31 32 33 34 35 36 37 38 39 40 41 42 43 44 45 46 47 48 49 50
657
ASUS46 KPDT 251125
RWRPDT
PENDLETON REGIONAL WEATHER ROUNDUP
NATIONAL WEATHER SERVICE PENDLETON OREGON
400 AM PDT THU MAY 25 2017

NOTE: FAIR INDICATES FEW OR NO CLOUDS BELOW 12,000 FEET WITH NO
SIGNIFICANT WEATHER AND/OR OBSTRUCTIONS TO VISIBILITY.

# INDICATES UNOFFICIAL STATION AND DATA

WAZ520-251210-
EAST SLOPES OF WASHINGTON CASCADES

CITY            SKY/WX      TMP DP  RH  WIND    PRES   REMARKS
#BULLFROG       N/A         43  36  76  S1      N/A
#CLE ELUM HS    N/A         40  34  79  CALM    29.79F
#CLE ELUM LAKE  N/A         N/A N/A N/A CALM    29.91F
#EASTON DOT     N/A         42  35  76  N1      N/A
#ELK HTS DOT    N/A         41  40  96  N1      N/A
#GLENWOOD       N/A         33  31  92  CALM    29.83S
#NELSON 3SW     N/A         36  33  89  CALM    30.03S
#NILE           N/A         38  34  85  CALM    29.12R
#TEANAWAY 4NE   N/A         36  34  92  CALM    N/A
#TROUT LAKE 1NE N/A         37  35  92  CALM    29.84S
#TROUT LAKE 1E  N/A         35  33  92  CALM    29.88R
$$

WAZ521-251210-
SIMCOE HIGHLANDS

CITY            SKY/WX      TMP DP  RH  WIND    PRES   REMARKS
#BICKLETON HS   N/A         46  36  68  W3      29.77S
#CENTERVILLE 1SWN/A         42  36  79  CALM    29.80R
#GOLDENDALE 4W  N/A         37  26  64  NE2     29.88S
#GOODNOE HILLS  N/A         44  40  86  W8      N/A
#LYLE 6NE       N/A         45  41  86  S2      29.82R
#PITT 4SE       N/A         39  37  92  CALM    29.87S
$$

WAZ026-251210-
KITTITAS VALLEY

CITY            SKY/WX      TMP DP  RH  WIND    PRES   REMARKS
ELLENSBURG AP   CLEAR       47  35  63  NW14    29.81S WCI 41
YTC-OPS AREA    CLEAR       42  33  70  N25     29.81R WCI 32
#ELLENSBURG CWU N/A         46  37  71  NW10    29.75R
#ELLENSBURG 3NE N/A         46  37  71  W5      27.91S
#ELLENSBURG 1E  N/A         46  N/A N/A CALM    N/A
#KITTITAS 4N    N/A         40  32  73  E1      29.83R
#KITTITAS 3S    N/A         42  36  79  CALM    29.80S
#MANASTASH RDG  N/A         42  41  96  NW7     N/A
#ROCKY CYN DOT  N/A         43  38  82  NW7     N/A
#RYEGRASS DOT   N/A         42  36  79  W15     N/A    WCI 34
#THORP 6N       N/A         43  36  76  N15     29.84S WCI 36
$$

WAZ027-251210-
YAKIMA VALLEY

CITY            SKY/WX      TMP DP  RH  WIND    PRES   REMARKS
SUNNYSIDE AP    PTCLDY      42  37  82  N3      29.81S
YAKIMA AIRPORT  CLEAR       53  37  54  W9      29.82S
YAKIMA-VAGABOND CLEAR       46  35  65  E8      29.80S
#DONALD 2NE     N/A         51  16  24  NW5     28.65S
#GRANDVIEW      N/A         48  36  63  CALM    29.81R
#MABTON         N/A         49  38  66  SW1     29.80R
#MOXEE 2E       N/A         47  N/A N/A CALM    29.87S
#NACHES 2SW     N/A         48  37  65  W9      29.81S
#OUTLOOK DOT    N/A         52  35  52  W5      29.76S
#PARKER DOT     N/A         53  35  50  SE8     29.79F
#TERRACE HTS    N/A         46  35  65  CALM    29.75F
#TOPPENISH      N/A         52  38  59  CALM    29.72S
#I82 S UMTANUM RN/A         44  34  68  N6      N/A
#UNION GAP DOT  N/A         51  36  56  N3      29.84S
#WEST VALLEY    N/A         50  36  58  CALM    29.78S
#W YAKIMA       N/A         49  37  63  N1      29.80S
#WHITE SWAN 5E  N/A         42  37  82  CALM    29.80S
#WILEY CITY 3W  N/A         40  31  70  CALM    29.78S
#ZILLAH DOT     N/A         50  36  58  W3      N/A
$$

WAZ028-251210-
LOWER COLUMBIA BASIN...WASHINGTON

CITY            SKY/WX      TMP DP  RH  WIND    PRES   REMARKS
HANFORD         PTCLDY      52  34  50  W10     29.78S
PASCO           PTCLDY      53  37  54  S6      29.81R
PROSSER AWOS    N/A         45  37  73  CALM    29.84R
RICHLAND AWOS   PTCLDY      50  38  63  S3      29.81R
#BENTON CITY    N/A         48  38  68  CALM    29.70R
#CONNELL 5N     N/A         44  39  82  CALM    29.77R
#CONNELL 5NW    N/A         47  40  76  SW1     29.72R
#ELTOPIA 6NW    N/A         48  39  71  CALM    28.77R
#KAHLOTUS       N/A         46  37  71  SW5     29.76S
#KENNEWICK 3S   N/A         50  37  61  S2      29.79S
#PATERSON       N/A         49  43  80  NW2     29.79R
#PROSSER DOT    N/A         49  39  68  CALM    29.81R
#SAGEMOOR 2W    N/A         48  39  71  CALM    29.66R
#TOUCHET 2S     N/A         51  43  74  S7      29.78S
#WEST PASCO     N/A         51  36  56  CALM    29.78R
$$

WAZ029-251210-
FOOTHILLS OF THE BLUES...WASHINGTON

CITY            SKY/WX      TMP DP  RH  WIND    PRES   REMARKS
WALLA WALLA AP  MOCLDY      50  41  71  S10     29.81R
#CLYDE 6NW      N/A         43  36  76  CALM    29.77S
#DAYTON SCHOOL  N/A         45  34  65  CALM    29.83
#LOWDEN 2SE     N/A         46  41  83  CALM    29.78R
#PLEASANT VIEW 1N/A         44  37  76  SW3     29.80R
#PRESCOTT       N/A         40  37  89  CALM    29.78R
#WHITMAN COLLEGEN/A         50  41  71  SE3     29.85R
#WAITSBURG 6SSE N/A         45  36  70  E3      29.81R
#WALLA WALLA 5E N/A         50  40  68  S9      N/A
#WHITMAN MISSIONN/A         47  41  79  CALM    29.82R
$$

WAZ030-251210-
BLUE MOUNTAINS...WASHINGTON

CITY            SKY/WX      TMP DP  RH  WIND    PRES   REMARKS
#DIXIE 5SE      N/A         54  33  45  SW9     29.73R
$$

ORZ009-041-WAZ024-251210-
COLUMBIA RIVER GORGE

CITY            SKY/WX      TMP DP  RH  WIND    PRES   REMARKS
HOOD RIVER AP   CLEAR       43  37  79  CALM    29.88R
THE DALLES AP   CLEAR       53  43  69  NW15    29.85R
#ARLINGTON AIRPON/A         48  41  77  W3      29.82S
#CELILO DOT     N/A         53  39  59  W3      N/A
#LYLE           N/A         51  43  74  N6      29.87R
#MARYHILL       N/A         49  40  71  N6      N/A
#MURDOCK        N/A         52  43  71  NW10    29.81S
#RUFUS DOT      N/A         55  41  59  W9      N/A
#SMITHVILLE     N/A         52  44  74  N12     29.79S

$$

ORZ510-251210-
NORTH CENTRAL OREGON

CITY            SKY/WX      TMP DP  RH  WIND    PRES   REMARKS
#ANTELOPE       N/A         35  32  89  CALM    29.71R
#CHENOWITH 1W   N/A         51  35  54  NW14    N/A
#COW CYN RST AREN/A         40  36  85  S6      N/A
#DUFUR          N/A         35  33  92  CALM    29.80S
#DUFUR 9E       N/A         47  37  68  W2      29.89S
#GRASS VALLEY 1SN/A         38  34  85  S3      29.86F
#KENT DOT       N/A         37  31  79  SW3     N/A
#MAUPIN SCHOOL  N/A         46  37  71  CALM    29.91R
#MORO SCHOOL    N/A         41  39  93  CALM    29.93S
#SHANIKO 5WSW   N/A         39  32  76  N8      N/A
#SHANIKO 4NW    N/A         40  34  79  S2      29.84R
#TYGH VALLEY 2NEN/A         40  35  82  N2      29.84S
#WAPANITIA AIRPON/A         42  37  82  W1      29.85S
#WASCO DOT      N/A         43  39  86  CALM    N/A
#WASCO 5NE      N/A         45  39  79  W3      29.82R
$$

ORZ511-251210-
CENTRAL OREGON

CITY            SKY/WX      TMP DP  RH  WIND    PRES   REMARKS
BEND AIRPORT    MOCLDY      41  34  76  SW6     29.82S
MADRAS AIRPORT  CLEAR       36  34  92  SE5     29.88
PRINEVILLE AP   PTCLDY      36  34  92  MISG    29.87S
REDMOND AIRPORT MOCLDY      39  31  73  SW3     29.86S
#ASHWOOD SCHOOL N/A         38  35  89  CALM    29.84S
#BEND 1SW       N/A         38  33  82  CALM    N/A
#BEND-AWBREY    N/A         42  36  79  S1      29.79S
#BEND-KIM LN    N/A         32  29  89  SW1     29.76R
#CULVER         N/A         38  33  82  CALM    29.77R
#CULVER 8W      N/A         36  34  92  CALM    29.87S
#MADRAS 4S      N/A         36   6  28  CALM    29.95F
#POWELL BUTTE   N/A         41  36  82  CALM    29.83S
#PRINEVILLE     N/A         36  32  85  CALM    29.91R
#PRINEVILLE 3N  N/A         38  34  85  NE3     29.82R

$$


ORZ509-251210-
EAST SLOPES OF OREGON CASCADES

CITY            SKY/WX      TMP DP  RH  WIND    PRES   REMARKS
SISTERS AWOS    N/A         34  28  78  CALM    29.86S
#CAMP SHERMAN   N/A         31  28  88  CALM    29.92R
#LA PINE 4SW    N/A         27  22  81  CALM    29.91S
#LA PINE 4NW    N/A         27  23  85  CALM    29.83R
#LAVA BUTTE DOT N/A         34  32  92  CALM    N/A
#SISTERS 3N     N/A         31  22  69  CALM    29.88S
#SUNRIVER       N/A         36  33  89  CALM    29.78F
#TUMALO 3W      N/A         37  33  85  N2      29.70R
#WANOGA BUTTE D N/A         29  29  100 CALM    N/A

$$

ORZ044-251210-
LOWER COLUMBIA BASIN...OREGON

CITY            SKY/WX      TMP DP  RH  WIND    PRES   REMARKS
HERMISTON       PTCLDY      48  42  80  SW7     29.81S
#BOARDMAN SCHOOLN/A         50  41  71  N2      29.81R
#BOARDMAN 8SW   N/A         47  41  79  S5      29.80S
#ECHO 8SW       N/A         49  39  68  SW2     29.82F
#I-84 EX 198 DOTN/A         48  42  80  NE8     N/A
#IONE SCHOOL    N/A         48  30  49  CALM    29.83R
#UMATILLA       N/A         49  39  68  CALM    29.73F
$$

ORZ507-251210-
NORTHERN FOOTHILLS OF THE BLUES

CITY            SKY/WX      TMP DP  RH  WIND    PRES   REMARKS
PENDLETON AIRPT PTCLDY      49  39  68  S7      29.81R
#ADAMS 3WNW     N/A         42  38  86  CALM    29.82R
#ATHENA         N/A         43  38  82  CALM    29.83R
#CAYUSE         N/A         47  39  74  CALM    29.79S
#HELIX SCHOOL   N/A         43  38  82  CALM    29.79S
#HELIX 3N       N/A         43  39  86  SW7     29.80R
#HOLDMAN 5SE    N/A         46  40  79  SW1     29.81S
#HOLDMAN 6E     N/A         45  40  82  S3      29.61S
#M-F FERNDALE   N/A         50  39  66  CALM    29.79R
#M-F GROVE ELEM N/A         49  38  66  SW3     29.80R
#M-FREEWATER 5SEN/A         45  38  76  CALM    29.82R
#PENDLETON DNTN N/A         49  33  54  E1      29.83R
#PDT AQUATIC CTRN/A         48  35  60  CALM    29.85S
#PDT SUNRIDGE   N/A         45  40  82  CALM    29.84R
#PENDLETON 7NW  N/A         49  39  68  CALM    26.20S
#PILOT ROCK 1S  N/A         48  35  60  S5      29.83S
#PILOT ROCK     N/A         46  37  71  CALM    29.84S
#TUTUILLA       N/A         43  38  82  CALM    29.82R
#UMAPINE 2E     N/A         46  40  79  CALM    29.78R
#WESTON SCHOOL  N/A         45  36  70  SW2     29.80R

$$

ORZ508-251210-
SOUTHERN FOOTHILLS OF THE BLUES

CITY            SKY/WX      TMP DP  RH  WIND    PRES   REMARKS
LEXINGTON       CLEAR       45  37  73  E7      29.86S
#AJAX           N/A         44  31  60  S5      30.00S
#CONDON 5W      N/A         41  34  76  W6      29.82S
#FOSSIL SCHOOL  N/A         39  35  85  CALM    29.81S
#HEPPNER EOC    N/A         45  38  76  E1      29.75S
#HEPPNER 4NE    N/A         42  37  82  S1      29.80S
#MIKKALO        N/A         46  36  68  S1      29.94S
#OLEX 4N        N/A         45  38  76  SW6     29.83R
#RUGGS 5NE      N/A         40  37  89  N2      29.98F
#RUGGS 2SW      N/A         44  37  76  SW8     29.81F

$$

ORZ502-503-251210-
BLUE MOUNTAINS

CITY            SKY/WX      TMP DP  RH  WIND    PRES   REMARKS
MEACHAM         PTCLDY      36  30  79  CALM    29.82S
#BATTLE MTN DOT N/A         38  34  85  W8      N/A
#GRANITE        N/A         34  25  69  CALM    29.50R
#GREENHORN 9SW  N/A         37  34  89  CALM    29.86S
#HARDMAN 10S    N/A         35  33  92  CALM    29.89F
#LADD CYN SMT   N/A         43  32  65  W8      N/A
#LADD CREEK ODOTN/A         45  33  63  CALM    N/A
#LONG CREEK HS  N/A         39  37  92  CALM    N/A
#N POWDER DOT   N/A         41  34  76  N5      N/A
#PIKES PEAK     N/A         42  35  76  N15     27.99S WCI 34
#SUMMERVILLE 5NWN/A         44  35  70  W3      29.84R
#TOLLGATE       N/A         34  32  92  SW2     29.69S
#TROY SCHOOL    N/A         45  39  79  CALM    29.62R
#UKIAH          N/A         38  36  92  CALM    29.71R
#WESTON 4E      N/A         40  36  85  S1      29.77R
$$

ORZ505-251210-
JOHN DAY BASIN

CITY            SKY/WX      TMP DP  RH  WIND    PRES   REMARKS
JOHN DAY        PTCLDY      42  35  76  CALM    29.84R
#ANTELOPE 9ESE  N/A         45  38  76  CALM    N/A
#DAYVILLE SCHOOLN/A         48  34  58  CALM    29.82S
#MITCHELL       N/A         41  37  86  CALM    30.01S
#MITCHELL 8NW   N/A         43  35  73  CALM    29.81S
#MONUMENT HS    N/A         48  38  68  CALM    29.81R
#MT. VERNON 5SE N/A         40  34  79  CALM    29.78S
#SPRAY SCHOOL   N/A         45  N/A N/A CALM    N/A
$$

ORZ506-251210-
OCHOCO AND JOHN DAY HIGHLANDS

CITY            SKY/WX      TMP DP  RH  WIND    PRES   REMARKS
#HORSE RIDGE DO N/A         31  25  78  SE1     N/A
#IZEE 6NW       N/A         35  32  89  SE2     N/A
#PAULINA ODOT   N/A         38  33  82  SW3     N/A
#PINE MTN OBS   N/A         31  30  96  CALM    N/A
#SENECA         N/A         37  N/A N/A CALM    N/A
#SENECA 9NW     N/A         33  30  89  CALM    29.73R
$$

ORZ049-251210-
GRANDE RONDE VALLEY

CITY            SKY/WX      TMP DP  RH  WIND    PRES   REMARKS
LA GRANDE       PTCLDY      46  34  63  NW14    29.80R WCI 40
#COVE           N/A         41  38  89  CALM    29.85R
#COVE SCHOOL    N/A         41  36  82  CALM    29.84R
#COVE 6NW       N/A         43  35  73  SW1     29.76R
#ELGIN 3N       N/A         41  34  76  CALM    29.80R
#ELGIN 1E       N/A         43  36  76  CALM    N/A
#IMBLER SCHOOL  N/A         44  34  68  CALM    29.78S
#ISLAND CITY 4N N/A         44  43  96  CALM    29.93S
#LA GRANDE-LEFFEN/A         44  36  73  N3      29.82R
#UNION 1S       N/A         47  37  68  N2      29.76R
$$

ORZ050-251210-
WALLOWA COUNTY

CITY            SKY/WX      TMP DP  RH  WIND    PRES   REMARKS
JOSEPH AIRPORT  MOCLDY      36  32  85  CALM    29.80S HAZE
#ENTERPRISE HS  N/A         38  34  85  CALM    29.63R
#IMNAHA SCHOOL  N/A         47  38  71  N2      29.80R
#IMNAHA 10S     N/A         43  36  76  SW2     29.79S
#JOSEPH         N/A         37  32  82  CALM    29.80S
#JOSEPH 3N      N/A         33  26  75  CALM    29.84S
#JOSEPH 3W      N/A         35  32  89  CALM    29.66F
#LOSTINE        N/A         35  32  89  CALM    29.56R
#LOSTINE 3SE    N/A         34  31  89  CALM    29.83S
#MT HOWARD 8000 N/A         26  24  92  N2      29.75F
#PROMISE 1S     N/A         42  33  70  SW1     29.85R
#WALLOWA LAKE   N/A         38  33  82  CALM    29.80S
#WALLOWA SCHOOL N/A         38  34  85  CALM    29.79R



$$



USA.gov is the U.S. government's official web portal to all federal, state and local government web resources and services.